QPF
0.00 0.00 0.00 0.00 0.00 0.00 0.00 0.00 0.00 0.00 0.00 0.00 0.00 0.00 0.00 0.00 0.00 0.00 0.00 0.00 0.00 0.00 0.00 0.00 0.00 0.00 0.00 0.00 0.00 0.00 0.00 0.00 0.00 0.00 0.00 0.00 0.00 0.00 0.00 0.00 0.00 0.00 0.00 0.01
0.00 0.00 0.00 0.00 0.00 0.00 0.00 0.00 0.00 0.00 0.00 0.00 0.00 0.00 0.00 0.00 0.00 0.00 0.00 0.00 0.00 0.00 0.00 0.00 0.00 0.00 0.00 0.00 0.00 0.00 0.00 0.00 0.00 0.00 0.00 0.00 0.00 0.00 0.00 0.00 0.00 0.00 0.00 0.00
0.00 0.00 0.00 0.00 0.00 0.00 0.00 0.00 0.00 0.00 0.00 0.00 0.00 0.00 0.00 0.00 0.00 0.00 0.00 0.00 0.00 0.00 0.00 0.00 0.00 0.00 0.00 0.00 0.00 0.00 0.00 0.00 0.00 0.00 0.00 0.00 0.00 0.00 0.00 0.00 0.00 0.00 0.00 0.00
0.00 0.00 0.00 0.00 0.00 0.00 0.00 0.00 0.00 0.00 0.00 0.00 0.00 0.00 0.00 0.00 0.00 0.00 0.00 0.00 0.00 0.00 0.00 0.00 0.00 0.00 0.00 0.00 0.00 0.00 0.00 0.00 0.00 0.00 0.00 0.00 0.00 0.00 0.00 0.00 0.00 0.00 0.00 0.00
0.00 0.00 0.00 0.00 0.00 0.00 0.00 0.00 0.00 0.00 0.00 0.00 0.00 0.00 0.00 0.00 0.00 0.00 0.00 0.00 0.00 0.00 0.00 0.00 0.00 0.00 0.00 0.00 0.00 0.00 0.00 0.00 0.00 0.00 0.00 0.00 0.00 0.00 0.00 0.00 0.00 0.00 0.00 0.00
0.00 0.00 0.00 0.00 0.00 0.00 0.00 0.00 0.00 0.00 0.00 0.00 0.00 0.00 0.00 0.00 0.00 0.00 0.00 0.00 0.00 0.00 0.00 0.00 0.00 0.00 0.00 0.00 0.00 0.00 0.00 0.00 0.00 0.00 0.00 0.00 0.00 0.00 0.00 0.00 0.00 0.00 0.00 0.00
0.00 0.00 0.00 0.00 0.00 0.00 0.00 0.00 0.00 0.00 0.00 0.00 0.00 0.00 0.00 0.00 0.00 0.00 0.00 0.00 0.00 0.00 0.00 0.00 0.00 0.00 0.00 0.00 0.00 0.00 0.00 0.00 0.00 0.00 0.00 0.00 0.00 0.00 0.00 0.00 0.00 0.00 0.00 0.00
0.00 0.00 0.00 0.00 0.00 0.00 0.00 0.00 0.00 0.00 0.00 0.00 0.00 0.00 0.00 0.00 0.00 0.00 0.00 0.00 0.00 0.00 0.00 0.00 0.00 0.00 0.00 0.00 0.00 0.00 0.00 0.00 0.00 0.00 0.00 0.00 0.00 0.00 0.00 0.00 0.00 0.00 0.00 0.00
0.00 0.00 0.00 0.00 0.00 0.00 0.00 0.00 0.00 0.00 0.00 0.00 0.00 0.00 0.00 0.00 0.00 0.00 0.00 0.00 0.00 0.00 0.00 0.00 0.00 0.00 0.00 0.00 0.00 0.00 0.00 0.00 0.00 0.00 0.00 0.00 0.00 0.00 0.00 0.00 0.00 0.00 0.00 0.00
0.00 0.00 0.00 0.00 0.00 0.00 0.00 0.00 0.00 0.00 0.00 0.00 0.00 0.00 0.00 0.00 0.00 0.00 0.00 0.00 0.00 0.00 0.00 0.00 0.00 0.00 0.00 0.00 0.00 0.00 0.00 0.00 0.00 0.00 0.00 0.00 0.00 0.00 0.00 0.00 0.00 0.00 0.00 0.01
0.01 0.00 0.00 0.00 0.00 0.00 0.00 0.00 0.00 0.00 0.00 0.00 0.00 0.00 0.00 0.00 0.00 0.00 0.00 0.00 0.00 0.00 0.00 0.00 0.00 0.00 0.00 0.00 0.00 0.00 0.00 0.00 0.00 0.00 0.00 0.00 0.00 0.00 0.00 0.00 0.00 0.00 0.00 0.01
0.01 0.01 0.00 0.00 0.00 0.00 0.00 0.00 0.00 0.00 0.00 0.00 0.00 0.00 0.00 0.00 0.00 0.00 0.00 0.00 0.00 0.00 0.00 0.00 0.00 0.00 0.00 0.00 0.00 0.00 0.00 0.00 0.00 0.00 0.00 0.00 0.00 0.00 0.00 0.00 0.00 0.00 0.00 0.00
0.00 0.00 0.00 0.00 0.00 0.00 0.00 0.00 0.00 0.00 0.00 0.00 0.00 0.00 0.00 0.00 0.00 0.00 0.00 0.00 0.00 0.00 0.00 0.00 0.00 0.00 0.00 0.00 0.00 0.00 0.00 0.00 0.00 0.00 0.00 0.00 0.00 0.00 0.00 0.00 0.00 0.00 0.00 0.00
0.00 0.00 0.00 0.00 0.00 0.00 0.00 0.00 0.00 0.00 0.00 0.00 0.00 0.00 0.00 0.00 0.00 0.00 0.00 0.00 0.00 0.00 0.00 0.00 0.00 0.00 0.00 0.00 0.00 0.00 0.00 0.00 0.00 0.00 0.00 0.00 0.00 0.00 0.00 0.00 0.00 0.00 0.00 0.00
0.00 0.00 0.00 0.00 0.00 0.00 0.00 0.00 0.00 0.00 0.00 0.00 0.00 0.00 0.00 0.00 0.00 0.00 0.00 0.00 0.00 0.00 0.00 0.00 0.00 0.00 0.00 0.00 0.00 0.00 0.00 0.00 0.00 0.00 0.00 0.00 0.00 0.00 0.00 0.00 0.00 0.00 0.00 0.00
0.00 0.00 0.00 0.00 0.00 0.00 0.00 0.00 0.00 0.00 0.00 0.00 0.00 0.00 0.00 0.00 0.00 0.00 0.00 0.00 0.00 0.00 0.00 0.00 0.00 0.00 0.00 0.00 0.00 0.00 0.00 0.00 0.00 0.00 0.00 0.00 0.00 0.00 0.00 0.00 0.00 0.01 0.01 0.00
0.00 0.00 0.00 0.00 0.00 0.00 0.00 0.00 0.00 0.00 0.00 0.00 0.00 0.00 0.00 0.00 0.00 0.00 0.00 0.00 0.00 0.00 0.00 0.00 0.00 0.00 0.00 0.00 0.00 0.00 0.00 0.00 0.00 0.00 0.00 0.00 0.00 0.00 0.00 0.00 0.01 0.01 0.01 0.01
0.00 0.00 0.00 0.00 0.00 0.00 0.00 0.00 0.00 0.00 0.00 0.00 0.00 0.00 0.00 0.00 0.00 0.00 0.00 0.00 0.00 0.00 0.00 0.00 0.00 0.00 0.00 0.00 0.00 0.00 0.00 0.00 0.00 0.00 0.00 0.00 0.00 0.00 0.01 0.01 0.01 0.01 0.01 0.01
0.00 0.00 0.00 0.00 0.00 0.00 0.00 0.00 0.00 0.00 0.00 0.00 0.00 0.00 0.00 0.00 0.00 0.00 0.00 0.00 0.00 0.00 0.00 0.00 0.00 0.00 0.00 0.00 0.00 0.00 0.00 0.00 0.00 0.00 0.00 0.00 0.00 0.01 0.01 0.01 0.01 0.01 0.01 0.01
0.00 0.00 0.00 0.00 0.00 0.00 0.00 0.00 0.00 0.00 0.00 0.00 0.00 0.00 0.00 0.00 0.00 0.00 0.00 0.00 0.00 0.00 0.00 0.00 0.00 0.00 0.00 0.00 0.00 0.00 0.00 0.00 0.00 0.00 0.00 0.00 0.01 0.01 0.00 0.01 0.01 0.01 0.01 0.01
0.00 0.00 0.00 0.00 0.00 0.00 0.00 0.00 0.00 0.00 0.00 0.00 0.00 0.00 0.00 0.00 0.00 0.00 0.00 0.00 0.00 0.00 0.00 0.00 0.00 0.00 0.00 0.00 0.00 0.00 0.00 0.00 0.00 0.00 0.00 0.01 0.00 0.00 0.01 0.01 0.01 0.01 0.02 0.01
0.00 0.00 0.00 0.00 0.00 0.00 0.00 0.00 0.00 0.00 0.00 0.00 0.00 0.00 0.00 0.00 0.00 0.00 0.00 0.00 0.00 0.00 0.00 0.00 0.00 0.00 0.00 0.00 0.00 0.00 0.00 0.00 0.00 0.00 0.00 0.00 0.00 0.01 0.01 0.01 0.01 0.01 0.01 0.01
0.00 0.00 0.00 0.00 0.00 0.00 0.00 0.00 0.00 0.00 0.00 0.00 0.00 0.00 0.00 0.00 0.00 0.00 0.00 0.00 0.00 0.00 0.00 0.00 0.00 0.00 0.00 0.00 0.00 0.00 0.00 0.00 0.00 0.00 0.00 0.00 0.00 0.01 0.01 0.01 0.01 0.01 0.01 0.01
0.00 0.00 0.00 0.00 0.00 0.00 0.00 0.00 0.00 0.00 0.00 0.00 0.00 0.00 0.00 0.00 0.00 0.00 0.00 0.00 0.00 0.00 0.00 0.00 0.00 0.00 0.00 0.00 0.00 0.00 0.00 0.00 0.00 0.00 0.00 0.00 0.01 0.01 0.01 0.01 0.01 0.01 0.01 0.01
0.00 0.00 0.00 0.00 0.00 0.00 0.00 0.00 0.00 0.00 0.00 0.00 0.00 0.00 0.00 0.00 0.00 0.00 0.00 0.00 0.00 0.00 0.00 0.00 0.00 0.00 0.00 0.00 0.00 0.00 0.00 0.00 0.00 0.00 0.00 0.00 0.00 0.01 0.00 0.00 0.01 0.01 0.01 0.01
0.00 0.00 0.00 0.00 0.00 0.00 0.00 0.00 0.00 0.00 0.00 0.00 0.00 0.00 0.00 0.00 0.00 0.00 0.00 0.00 0.00 0.00 0.00 0.00 0.00 0.00 0.00 0.00 0.00 0.00 0.00 0.00 0.00 0.00 0.00 0.00 0.00 0.00 0.01 0.01 0.01 0.01 0.01 0.01
0.00 0.00 0.00 0.00 0.00 0.00 0.00 0.00 0.00 0.00 0.00 0.00 0.00 0.00 0.00 0.00 0.00 0.00 0.00 0.00 0.00 0.00 0.01 0.01 0.00 0.00 0.00 0.00 0.00 0.00 0.00 0.00 0.00 0.00 0.00 0.00 0.00 0.00 0.00 0.01 0.01 0.01 0.01 0.02
MSLP
1014.53 1014.74 1014.97 1015.20 1015.43 1015.65 1015.85 1016.02 1016.16 1016.27 1016.37 1016.48 1016.63 1016.83 1017.10 1017.44 1017.84 1018.27 1018.71 1019.12 1019.47 1019.75 1019.93 1020.04 1020.07 1020.05 1020.00 1019.95 1019.90 1019.87 1019.86 1019.85 1019.83 1019.80 1019.74 1019.64 1019.50 1019.32 1019.10 1018.85 1018.55 1018.22 1017.85 1017.46
1014.68 1014.80 1014.86 1014.87 1014.86 1014.82 1014.77 1014.75 1014.75 1014.80 1014.91 1015.11 1015.38 1015.74 1016.18 1016.67 1017.19 1017.71 1018.21 1018.65 1019.02 1019.32 1019.53 1019.67 1019.75 1019.80 1019.82 1019.83 1019.83 1019.84 1019.85 1019.85 1019.83 1019.78 1019.71 1019.60 1019.45 1019.27 1019.06 1018.81 1018.52 1018.20 1017.85 1017.47
1015.00 1014.99 1014.87 1014.66 1014.40 1014.11 1013.83 1013.62 1013.49 1013.47 1013.58 1013.82 1014.20 1014.68 1015.24 1015.85 1016.46 1017.06 1017.61 1018.09 1018.48 1018.80 1019.04 1019.23 1019.37 1019.47 1019.56 1019.63 1019.69 1019.74 1019.77 1019.78 1019.75 1019.70 1019.61 1019.49 1019.33 1019.15 1018.93 1018.69 1018.41 1018.10 1017.75 1017.38
1015.39 1015.24 1014.94 1014.52 1014.03 1013.52 1013.05 1012.66 1012.41 1012.33 1012.42 1012.69 1013.13 1013.70 1014.35 1015.04 1015.73 1016.38 1016.97 1017.47 1017.89 1018.23 1018.51 1018.74 1018.92 1019.09 1019.24 1019.37 1019.48 1019.57 1019.62 1019.64 1019.61 1019.55 1019.45 1019.31 1019.15 1018.96 1018.75 1018.50 1018.23 1017.92 1017.58 1017.22
1015.69 1015.39 1014.93 1014.33 1013.66 1012.98 1012.36 1011.85 1011.51 1011.38 1011.45 1011.74 1012.22 1012.83 1013.54 1014.29 1015.02 1015.71 1016.32 1016.85 1017.29 1017.65 1017.96 1018.22 1018.45 1018.67 1018.87 1019.04 1019.20 1019.32 1019.39 1019.42 1019.40 1019.34 1019.23 1019.09 1018.92 1018.73 1018.52 1018.28 1018.00 1017.70 1017.35 1016.98
1015.71 1015.28 1014.69 1013.97 1013.19 1012.40 1011.69 1011.12 1010.74 1010.58 1010.66 1010.96 1011.46 1012.11 1012.85 1013.63 1014.39 1015.10 1015.72 1016.26 1016.72 1017.10 1017.42 1017.71 1017.98 1018.23 1018.46 1018.68 1018.86 1019.01 1019.11 1019.15 1019.14 1019.08 1018.97 1018.83 1018.66 1018.47 1018.26 1018.01 1017.74 1017.43 1017.07 1016.68
1015.33 1014.81 1014.14 1013.36 1012.52 1011.71 1010.98 1010.41 1010.03 1009.89 1009.99 1010.32 1010.84 1011.52 1012.28 1013.07 1013.84 1014.56 1015.19 1015.74 1016.20 1016.59 1016.92 1017.23 1017.51 1017.78 1018.04 1018.28 1018.49 1018.65 1018.77 1018.82 1018.82 1018.77 1018.67 1018.53 1018.36 1018.17 1017.96 1017.71 1017.43 1017.11 1016.74 1016.32
1014.53 1013.95 1013.24 1012.46 1011.65 1010.88 1010.21 1009.69 1009.37 1009.28 1009.42 1009.79 1010.34 1011.03 1011.80 1012.60 1013.38 1014.10 1014.73 1015.28 1015.74 1016.13 1016.47 1016.78 1017.07 1017.35 1017.61 1017.86 1018.08 1018.26 1018.38 1018.45 1018.46 1018.42 1018.32 1018.19 1018.02 1017.83 1017.60 1017.35 1017.06 1016.72 1016.33 1015.90
1013.38 1012.77 1012.09 1011.35 1010.62 1009.95 1009.38 1008.96 1008.74 1008.73 1008.93 1009.34 1009.92 1010.63 1011.41 1012.21 1012.99 1013.70 1014.34 1014.88 1015.34 1015.73 1016.06 1016.36 1016.64 1016.91 1017.17 1017.42 1017.64 1017.82 1017.95 1018.03 1018.05 1018.01 1017.92 1017.78 1017.61 1017.40 1017.16 1016.89 1016.59 1016.24 1015.84 1015.39
1012.03 1011.43 1010.80 1010.16 1009.55 1009.00 1008.56 1008.27 1008.16 1008.24 1008.51 1008.96 1009.57 1010.29 1011.07 1011.87 1012.64 1013.35 1013.98 1014.52 1014.97 1015.35 1015.68 1015.96 1016.22 1016.47 1016.71 1016.94 1017.15 1017.32 1017.45 1017.53 1017.55 1017.52 1017.42 1017.28 1017.10 1016.87 1016.62 1016.33 1016.00 1015.64 1015.23 1014.78
1010.67 1010.10 1009.55 1009.02 1008.54 1008.14 1007.84 1007.68 1007.68 1007.84 1008.17 1008.65 1009.27 1009.99 1010.77 1011.55 1012.32 1013.02 1013.64 1014.17 1014.62 1014.98 1015.29 1015.55 1015.78 1016.00 1016.21 1016.41 1016.59 1016.75 1016.87 1016.94 1016.96 1016.92 1016.82 1016.67 1016.47 1016.22 1015.94 1015.63 1015.28 1014.91 1014.50 1014.06
1009.44 1008.93 1008.46 1008.05 1007.70 1007.44 1007.28 1007.23 1007.31 1007.54 1007.91 1008.41 1009.03 1009.73 1010.49 1011.25 1012.00 1012.68 1013.30 1013.82 1014.25 1014.59 1014.87 1015.10 1015.30 1015.47 1015.64 1015.80 1015.96 1016.09 1016.19 1016.25 1016.26 1016.22 1016.11 1015.94 1015.71 1015.44 1015.14 1014.80 1014.43 1014.04 1013.64 1013.21
1008.40 1007.96 1007.58 1007.29 1007.07 1006.93 1006.88 1006.92 1007.08 1007.34 1007.73 1008.22 1008.82 1009.50 1010.22 1010.96 1011.67 1012.34 1012.93 1013.43 1013.84 1014.16 1014.41 1014.60 1014.75 1014.88 1015.00 1015.12 1015.23 1015.33 1015.41 1015.46 1015.46 1015.40 1015.28 1015.09 1014.85 1014.56 1014.23 1013.86 1013.48 1013.08 1012.67 1012.25
1007.54 1007.17 1006.90 1006.72 1006.61 1006.58 1006.62 1006.74 1006.93 1007.22 1007.61 1008.08 1008.65 1009.28 1009.96 1010.66 1011.34 1011.97 1012.53 1013.01 1013.39 1013.68 1013.89 1014.04 1014.14 1014.22 1014.29 1014.36 1014.43 1014.50 1014.55 1014.58 1014.57 1014.50 1014.37 1014.18 1013.92 1013.61 1013.25 1012.87 1012.46 1012.05 1011.63 1011.22
1006.78 1006.50 1006.34 1006.26 1006.26 1006.32 1006.44 1006.61 1006.84 1007.14 1007.51 1007.96 1008.49 1009.08 1009.71 1010.35 1010.99 1011.59 1012.11 1012.56 1012.90 1013.16 1013.33 1013.43 1013.48 1013.51 1013.53 1013.55 1013.58 1013.62 1013.64 1013.65 1013.63 1013.55 1013.42 1013.22 1012.96 1012.63 1012.26 1011.86 1011.43 1011.00 1010.57 1010.15
1006.04 1005.87 1005.81 1005.84 1005.94 1006.09 1006.27 1006.49 1006.75 1007.05 1007.41 1007.83 1008.32 1008.86 1009.44 1010.04 1010.63 1011.18 1011.67 1012.07 1012.38 1012.60 1012.73 1012.79 1012.80 1012.78 1012.75 1012.73 1012.72 1012.72 1012.73 1012.72 1012.68 1012.61 1012.47 1012.27 1012.00 1011.68 1011.30 1010.88 1010.44 1009.98 1009.53 1009.09
1005.31 1005.24 1005.28 1005.41 1005.60 1005.82 1006.07 1006.33 1006.61 1006.92 1007.28 1007.67 1008.13 1008.63 1009.16 1009.71 1010.25 1010.75 1011.20 1011.56 1011.83 1012.01 1012.10 1012.13 1012.10 1012.05 1011.99 1011.93 1011.89 1011.86 1011.84 1011.82 1011.77 1011.69 1011.55 1011.35 1011.09 1010.76 1010.38 1009.95 1009.49 1009.02 1008.54 1008.07
1004.61 1004.63 1004.77 1004.97 1005.23 1005.52 1005.81 1006.11 1006.42 1006.74 1007.09 1007.47 1007.89 1008.36 1008.85 1009.35 1009.84 1010.29 1010.69 1011.02 1011.25 1011.40 1011.47 1011.47 1011.42 1011.34 1011.26 1011.18 1011.11 1011.06 1011.02 1010.97 1010.91 1010.82 1010.68 1010.48 1010.21 1009.89 1009.50 1009.07 1008.60 1008.11 1007.60 1007.09
1004.04 1004.13 1004.32 1004.58 1004.88 1005.20 1005.53 1005.86 1006.18 1006.51 1006.85 1007.22 1007.62 1008.04 1008.49 1008.94 1009.38 1009.79 1010.15 1010.43 1010.64 1010.77 1010.82 1010.81 1010.76 1010.67 1010.57 1010.48 1010.39 1010.32 1010.25 1010.19 1010.10 1009.99 1009.83 1009.62 1009.35 1009.02 1008.64 1008.21 1007.73 1007.22 1006.69 1006.15
1003.71 1003.82 1004.03 1004.30 1004.61 1004.94 1005.27 1005.60 1005.92 1006.25 1006.58 1006.93 1007.30 1007.68 1008.08 1008.49 1008.88 1009.24 1009.55 1009.81 1009.99 1010.11 1010.16 1010.15 1010.10 1010.02 1009.92 1009.82 1009.73 1009.63 1009.54 1009.44 1009.32 1009.17 1008.99 1008.75 1008.47 1008.14 1007.75 1007.32 1006.84 1006.33 1005.78 1005.20
1003.66 1003.76 1003.93 1004.17 1004.45 1004.75 1005.05 1005.36 1005.67 1005.98 1006.29 1006.61 1006.94 1007.28 1007.63 1007.98 1008.32 1008.63 1008.90 1009.13 1009.30 1009.41 1009.47 1009.48 1009.44 1009.38 1009.29 1009.19 1009.08 1008.96 1008.83 1008.69 1008.52 1008.33 1008.11 1007.84 1007.54 1007.19 1006.80 1006.37 1005.90 1005.39 1004.83 1004.24
1003.89 1003.92 1004.02 1004.19 1004.40 1004.64 1004.90 1005.17 1005.44 1005.71 1005.98 1006.27 1006.55 1006.85 1007.14 1007.44 1007.72 1007.98 1008.22 1008.42 1008.58 1008.69 1008.76 1008.79 1008.78 1008.74 1008.66 1008.56 1008.44 1008.29 1008.12 1007.92 1007.70 1007.45 1007.17 1006.87 1006.53 1006.17 1005.77 1005.34 1004.88 1004.38 1003.82 1003.22
1004.28 1004.22 1004.23 1004.30 1004.43 1004.59 1004.79 1004.99 1005.22 1005.45 1005.68 1005.92 1006.16 1006.40 1006.64 1006.88 1007.10 1007.32 1007.52 1007.70 1007.85 1007.96 1008.05 1008.10 1008.11 1008.08 1008.02 1007.91 1007.77 1007.59 1007.37 1007.12 1006.83 1006.52 1006.19 1005.83 1005.46 1005.08 1004.68 1004.25 1003.80 1003.30 1002.76 1002.15
1004.67 1004.52 1004.43 1004.41 1004.45 1004.54 1004.67 1004.82 1004.99 1005.18 1005.37 1005.57 1005.76 1005.96 1006.15 1006.33 1006.51 1006.69 1006.85 1007.00 1007.14 1007.26 1007.35 1007.42 1007.44 1007.43 1007.36 1007.25 1007.08 1006.86 1006.60 1006.28 1005.93 1005.56 1005.17 1004.77 1004.37 1003.96 1003.56 1003.14 1002.69 1002.21 1001.66 1001.04
1004.91 1004.68 1004.52 1004.43 1004.40 1004.43 1004.51 1004.62 1004.76 1004.92 1005.08 1005.24 1005.40 1005.56 1005.70 1005.85 1005.99 1006.12 1006.25 1006.38 1006.51 1006.62 1006.71 1006.78 1006.81 1006.79 1006.72 1006.58 1006.39 1006.13 1005.81 1005.44 1005.03 1004.60 1004.16 1003.73 1003.30 1002.88 1002.47 1002.05 1001.62 1001.14 1000.59 999.96
1004.89 1004.62 1004.42 1004.30 1004.24 1004.24 1004.30 1004.40 1004.52 1004.67 1004.82 1004.96 1005.10 1005.23 1005.35 1005.46 1005.57 1005.67 1005.78 1005.88 1005.98 1006.08 1006.16 1006.21 1006.23 1006.20 1006.10 1005.94 1005.70 1005.40 1005.03 1004.61 1004.16 1003.69 1003.22 1002.75 1002.31 1001.89 1001.48 1001.06 1000.63 1000.15 999.60 998.94
1004.61 1004.35 1004.16 1004.04 1003.99 1004.00 1004.07 1004.17 1004.31 1004.46 1004.61 1004.76 1004.89 1005.01 1005.11 1005.20 1005.29 1005.36 1005.44 1005.52 1005.60 1005.67 1005.72 1005.75 1005.73 1005.66 1005.53 1005.33 1005.05 1004.70 1004.29 1003.84 1003.35 1002.85 1002.36 1001.89 1001.44 1001.03 1000.62 1000.22 999.79 999.31 998.74 998.05
Thickness
5722 5730 5731 5730 5730 5730 5721 5712 5703 5707 5705 5712 5716 5716 5713 5710 5706 5704 5701 5700 5699 5697 5696 5695 5694 5694 5693 5692 5691 5689 5686 5683 5681 5679 5677 5675 5673 5670 5668 5666 5664 5662 5660 5658
5720 5730 5730 5728 5730 5730 5727 5723 5716 5714 5711 5723 5721 5715 5710 5708 5706 5702 5700 5699 5697 5695 5693 5692 5690 5689 5687 5686 5684 5682 5679 5676 5675 5672 5670 5668 5665 5663 5660 5658 5656 5654 5651 5649
5701 5716 5721 5712 5727 5729 5727 5729 5723 5713 5718 5721 5714 5713 5712 5709 5707 5703 5700 5697 5694 5692 5690 5688 5686 5684 5682 5680 5678 5675 5672 5670 5667 5665 5662 5660 5658 5655 5652 5649 5647 5645 5644 5642
5695 5703 5692 5718 5739 5740 5733 5733 5733 5732 5729 5727 5725 5721 5718 5714 5708 5702 5699 5695 5692 5689 5686 5684 5682 5680 5677 5674 5671 5667 5664 5662 5660 5657 5654 5652 5649 5646 5643 5641 5639 5637 5635 5634
5686 5686 5696 5720 5736 5737 5728 5726 5735 5731 5728 5725 5721 5712 5706 5710 5708 5704 5699 5694 5690 5686 5683 5680 5677 5674 5670 5666 5662 5659 5656 5654 5652 5649 5646 5643 5640 5637 5635 5633 5631 5629 5627 5625
5683 5684 5684 5715 5737 5744 5733 5716 5732 5731 5725 5718 5712 5695 5699 5707 5705 5700 5695 5691 5686 5682 5678 5674 5670 5667 5662 5658 5654 5652 5650 5647 5645 5642 5638 5635 5632 5629 5626 5624 5622 5621 5619 5616
5681 5681 5694 5722 5735 5735 5706 5711 5730 5729 5725 5719 5713 5712 5711 5706 5700 5696 5691 5686 5682 5677 5671 5667 5664 5660 5655 5651 5648 5646 5644 5641 5638 5635 5631 5628 5624 5621 5617 5615 5613 5611 5608 5606
5676 5675 5690 5726 5727 5717 5717 5726 5727 5724 5722 5717 5712 5708 5704 5700 5694 5689 5684 5679 5675 5669 5664 5661 5657 5653 5647 5644 5642 5640 5636 5633 5630 5626 5623 5621 5615 5611 5608 5605 5602 5599 5597 5595
5692 5697 5715 5723 5725 5728 5725 5722 5721 5718 5716 5712 5704 5700 5696 5691 5686 5682 5677 5672 5667 5662 5656 5652 5649 5645 5640 5638 5636 5632 5628 5624 5621 5618 5614 5610 5606 5602 5598 5595 5591 5589 5587 5585
5693 5702 5711 5717 5720 5722 5721 5718 5717 5714 5710 5705 5698 5693 5688 5683 5677 5673 5669 5664 5659 5653 5648 5644 5641 5638 5635 5632 5629 5624 5619 5615 5611 5608 5605 5601 5597 5593 5588 5584 5581 5579 5577 5575
5686 5696 5701 5706 5710 5712 5712 5711 5708 5705 5702 5697 5692 5685 5679 5674 5669 5664 5660 5655 5651 5645 5640 5636 5633 5630 5627 5625 5621 5615 5610 5606 5602 5599 5595 5591 5587 5583 5580 5576 5572 5570 5567 5566
5682 5692 5690 5695 5703 5705 5701 5699 5697 5694 5689 5687 5684 5677 5671 5666 5661 5656 5651 5646 5641 5636 5632 5628 5625 5621 5619 5616 5611 5606 5601 5597 5592 5588 5585 5581 5577 5574 5572 5568 5566 5564 5561 5558
5693 5695 5692 5694 5695 5696 5693 5691 5689 5686 5681 5676 5673 5669 5663 5657 5651 5647 5642 5637 5632 5628 5624 5620 5616 5612 5610 5607 5602 5596 5591 5587 5582 5578 5574 5570 5566 5563 5561 5561 5558 5555 5552 5549
5690 5688 5682 5683 5682 5684 5683 5681 5678 5674 5671 5668 5663 5658 5653 5647 5642 5637 5632 5629 5625 5620 5615 5611 5607 5604 5601 5597 5592 5587 5582 5578 5574 5568 5563 5559 5555 5552 5548 5546 5545 5544 5542 5539
5680 5679 5675 5674 5673 5672 5670 5667 5662 5658 5656 5653 5650 5646 5642 5636 5631 5628 5624 5620 5615 5610 5606 5602 5598 5595 5592 5588 5583 5578 5572 5567 5563 5558 5553 5549 5545 5541 5537 5535 5532 5531 5529 5528
5667 5666 5664 5662 5660 5658 5656 5653 5649 5646 5644 5641 5638 5634 5631 5627 5623 5618 5614 5610 5604 5600 5597 5593 5590 5587 5583 5578 5573 5567 5562 5560 5555 5548 5543 5538 5534 5530 5527 5523 5521 5518 5516 5515
5652 5649 5649 5647 5647 5647 5645 5643 5641 5637 5634 5630 5627 5624 5620 5615 5610 5606 5602 5599 5596 5592 5589 5584 5581 5578 5573 5568 5563 5557 5553 5548 5546 5539 5533 5528 5524 5520 5516 5513 5509 5507 5506 5505
5647 5645 5643 5641 5638 5636 5634 5632 5630 5627 5623 5621 5617 5612 5607 5603 5598 5595 5591 5588 5584 5580 5577 5574 5571 5567 5563 5558 5553 5547 5542 5538 5533 5527 5523 5518 5514 5510 5506 5502 5499 5497 5496 5495
5635 5634 5632 5631 5629 5626 5623 5620 5618 5615 5613 5609 5605 5600 5597 5593 5589 5585 5580 5575 5571 5567 5566 5563 5561 5556 5551 5547 5544 5537 5532 5527 5522 5517 5512 5509 5505 5500 5496 5492 5490 5488 5485 5484
5623 5622 5620 5618 5617 5614 5611 5609 5606 5603 5600 5597 5593 5589 5584 5581 5577 5572 5568 5564 5561 5559 5557 5553 5548 5544 5540 5536 5533 5526 5521 5516 5512 5507 5502 5497 5493 5490 5486 5483 5480 5478 5476 5475
5606 5607 5606 5604 5602 5601 5598 5595 5592 5589 5587 5584 5580 5576 5573 5569 5565 5560 5555 5551 5551 5548 5544 5542 5537 5533 5528 5525 5522 5515 5510 5505 5501 5496 5492 5487 5483 5480 5476 5474 5471 5469 5467 5466
5590 5590 5590 5589 5587 5585 5583 5581 5578 5576 5573 5570 5567 5563 5559 5554 5551 5547 5544 5541 5540 5537 5533 5529 5525 5522 5519 5515 5509 5504 5499 5494 5490 5485 5481 5477 5473 5470 5467 5464 5461 5460 5458 5456
5573 5573 5573 5572 5571 5569 5568 5566 5564 5562 5559 5556 5552 5548 5545 5541 5537 5533 5531 5530 5527 5525 5521 5517 5514 5512 5509 5503 5497 5492 5487 5483 5479 5475 5471 5467 5464 5460 5457 5455 5453 5451 5449 5448
5558 5558 5558 5557 5555 5553 5551 5550 5549 5547 5545 5542 5540 5536 5532 5527 5524 5522 5520 5519 5516 5513 5508 5505 5502 5499 5496 5490 5484 5480 5476 5472 5468 5465 5461 5458 5454 5451 5448 5446 5444 5442 5441 5440
5541 5541 5540 5539 5538 5538 5537 5536 5534 5532 5529 5527 5525 5522 5519 5515 5511 5509 5506 5504 5502 5500 5495 5492 5490 5486 5481 5476 5472 5468 5464 5461 5457 5454 5450 5447 5444 5442 5439 5437 5435 5434 5433 5433
5524 5524 5524 5524 5523 5522 5521 5519 5517 5516 5514 5511 5509 5507 5504 5502 5499 5496 5493 5490 5488 5486 5482 5478 5475 5472 5468 5464 5460 5456 5453 5450 5447 5444 5441 5438 5435 5433 5431 5429 5428 5427 5426 5426
5509 5509 5508 5507 5507 5506 5504 5503 5501 5500 5499 5496 5494 5493 5490 5487 5485 5482 5480 5476 5474 5471 5468 5465 5462 5459 5455 5452 5448 5446 5443 5440 5437 5434 5432 5429 5427 5425 5424 5422 5421 5420 5419 5419